Temp
38 38 38 39 37 39 40 41 41 41 43 44 45 46 48 47 48 51 50 49 51 50 52 54 56 61 65 65 65 65 64 63
37 38 36 37 39 38 39 39 40 40 41 42 42 42 45 46 47 50 50 49 49 49 49 52 54 56 57 65 65 63 63 62
38 36 34 36 35 37 38 39 39 39 39 39 39 40 43 44 49 48 50 50 49 49 48 48 51 54 56 64 63 62 62 62
36 37 35 35 35 36 38 38 39 39 39 39 40 41 43 43 45 48 48 49 49 48 48 48 50 51 54 54 63 62 61 62
35 35 35 35 35 35 36 38 38 42 39 37 36 36 36 41 42 45 46 49 48 49 47 48 48 50 52 52 56 63 62 61
34 35 35 34 35 34 35 37 38 39 38 37 36 35 37 40 42 42 45 48 48 49 47 47 48 49 50 53 54 58 63 62
34 36 38 36 34 34 34 36 37 38 37 37 36 35 36 38 39 40 42 45 46 48 48 47 47 48 50 52 54 56 61 62
33 34 35 37 35 34 35 36 36 37 36 37 36 36 36 36 37 39 40 42 44 46 46 47 47 48 51 51 53 55 57 61
34 36 35 34 35 34 34 35 36 37 36 36 36 36 36 37 38 39 40 42 42 46 46 47 48 48 48 48 51 53 54 57
34 34 34 34 34 34 33 34 36 37 36 35 35 36 36 37 38 39 40 42 45 45 47 47 47 47 46 47 48 49 50 54
32 33 34 35 34 34 33 34 35 36 35 35 37 35 37 37 38 38 39 41 44 45 46 46 45 45 45 45 45 49 49 51
31 31 33 33 33 33 34 34 35 35 35 35 35 35 36 37 37 38 43 44 45 45 45 45 43 43 43 43 44 47 47 49
31 31 32 32 33 34 34 34 35 35 35 35 35 35 36 36 37 39 43 43 45 44 44 43 42 42 42 41 42 44 46 47
32 32 32 33 33 34 34 34 34 34 35 34 34 34 35 35 37 42 42 43 43 42 42 40 41 40 39 40 41 44 46 48
31 31 31 32 34 34 33 34 34 34 34 34 33 34 35 35 39 41 41 43 41 41 39 39 39 38 39 39 40 43 45 47
31 31 31 32 32 32 33 33 34 34 34 33 33 34 36 37 41 41 41 41 41 40 37 37 37 38 39 39 41 44 43 43
32 32 33 33 33 32 33 33 33 33 33 33 34 35 36 40 38 40 40 40 38 36 34 35 35 38 37 38 40 43 42 41
32 32 33 33 32 33 32 32 33 33 32 34 34 35 35 37 36 37 37 38 37 33 33 33 33 35 37 38 38 42 41 39
33 32 32 32 32 32 32 32 33 33 32 33 34 34 34 40 36 34 33 33 32 31 31 32 32 35 37 37 38 41 40 39
MSLP
1032.04 1032.03 1031.74 1031.43 1031.15 1030.85 1030.43 1029.77 1029.17 1028.50 1027.70 1027.03 1026.27 1025.50 1024.77 1024.20 1023.71 1023.57 1023.07 1022.28 1021.71 1021.17 1020.27 1019.26 1018.49 1017.36 1016.65 1016.76 1017.34 1017.94 1018.41 1019.21
1031.94 1031.86 1031.76 1031.52 1031.01 1030.91 1030.58 1030.00 1029.35 1028.72 1027.99 1027.33 1026.63 1026.03 1025.28 1024.57 1024.35 1023.42 1023.17 1022.71 1022.16 1021.40 1020.64 1019.66 1018.65 1018.62 1017.46 1017.01 1016.77 1017.29 1017.44 1018.27
1031.79 1031.72 1031.69 1031.64 1031.30 1030.95 1030.42 1030.05 1029.42 1028.93 1028.48 1027.92 1027.49 1026.59 1025.77 1025.25 1024.43 1024.38 1023.49 1022.67 1022.67 1021.97 1021.03 1020.18 1019.70 1018.86 1017.89 1017.01 1016.67 1016.67 1017.59 1017.68
1031.74 1031.75 1031.64 1031.52 1031.23 1030.90 1030.50 1030.02 1029.55 1028.95 1028.59 1028.07 1027.43 1026.69 1025.91 1025.19 1024.89 1024.34 1023.60 1022.61 1023.11 1022.15 1021.30 1020.60 1019.97 1019.40 1018.58 1017.47 1016.79 1017.07 1017.17 1017.81
1031.73 1031.59 1031.49 1031.28 1030.99 1030.71 1030.48 1029.85 1029.52 1028.90 1028.69 1028.38 1028.04 1027.59 1027.01 1026.15 1025.30 1024.49 1023.81 1023.88 1023.77 1021.98 1021.49 1021.10 1020.71 1019.80 1018.61 1018.08 1017.77 1016.61 1017.09 1017.76
1031.56 1031.33 1031.22 1031.05 1030.89 1030.73 1030.40 1029.90 1029.46 1029.15 1028.85 1028.55 1028.25 1027.93 1027.38 1026.74 1026.09 1025.26 1024.47 1024.05 1023.41 1021.71 1021.27 1021.35 1020.69 1020.17 1019.44 1018.19 1017.70 1016.97 1016.71 1017.28
1031.28 1031.34 1031.16 1030.98 1030.82 1030.72 1030.20 1029.89 1029.59 1029.27 1028.97 1028.62 1028.30 1028.00 1027.48 1026.90 1026.20 1025.51 1024.68 1023.70 1022.90 1021.55 1021.92 1021.26 1020.90 1020.25 1019.44 1018.36 1018.25 1017.20 1016.88 1016.91
1031.24 1031.15 1031.23 1031.05 1030.91 1030.59 1030.17 1029.91 1029.61 1029.21 1029.02 1028.72 1028.30 1027.93 1027.48 1027.04 1026.48 1025.83 1024.85 1023.77 1023.02 1022.62 1022.07 1021.43 1020.79 1020.47 1019.27 1019.06 1018.29 1017.80 1017.38 1016.97
1031.00 1031.05 1031.20 1030.99 1030.66 1030.42 1030.23 1029.87 1029.47 1029.16 1029.04 1028.75 1028.29 1027.87 1027.52 1027.10 1026.57 1026.11 1025.45 1024.66 1023.91 1022.93 1022.39 1021.85 1021.20 1020.76 1020.10 1019.08 1018.58 1018.21 1018.02 1017.32
1030.93 1030.89 1030.82 1030.64 1030.40 1030.18 1030.12 1029.79 1029.43 1029.11 1028.98 1028.78 1028.32 1027.87 1027.46 1027.17 1026.63 1026.10 1025.64 1024.89 1024.05 1023.23 1022.64 1021.97 1021.70 1021.33 1020.52 1019.77 1019.33 1018.93 1018.37 1017.77
1030.78 1030.74 1030.55 1030.30 1030.30 1030.09 1029.79 1029.55 1029.40 1029.20 1029.05 1028.85 1028.47 1028.04 1027.53 1027.05 1026.58 1026.05 1025.53 1024.89 1024.16 1023.57 1022.99 1022.68 1022.17 1021.81 1021.25 1020.25 1020.11 1019.34 1019.04 1018.34
1030.65 1030.53 1030.36 1030.27 1030.11 1029.93 1029.61 1029.43 1029.46 1029.25 1029.10 1028.93 1028.53 1028.11 1027.62 1027.12 1026.65 1025.93 1025.27 1024.63 1024.08 1023.59 1023.29 1022.92 1022.65 1022.27 1021.55 1020.47 1020.69 1020.38 1019.55 1019.02
1030.50 1030.37 1030.29 1030.08 1029.91 1029.68 1029.63 1029.51 1029.50 1029.35 1029.17 1028.96 1028.52 1028.11 1027.69 1027.21 1026.65 1025.96 1025.22 1024.65 1024.01 1023.81 1023.54 1023.13 1022.48 1022.19 1022.15 1021.51 1021.51 1020.86 1019.91 1019.45
1030.18 1030.14 1030.11 1030.00 1029.77 1029.69 1029.67 1029.65 1029.60 1029.42 1029.17 1028.93 1028.54 1028.14 1027.73 1027.30 1026.76 1026.11 1025.45 1024.88 1024.42 1024.42 1024.15 1023.81 1023.39 1023.09 1022.86 1022.17 1022.31 1021.22 1020.66 1020.05
1030.00 1029.92 1029.89 1029.84 1029.67 1029.68 1029.74 1029.76 1029.65 1029.43 1029.24 1029.02 1028.67 1028.19 1027.83 1027.41 1026.93 1026.42 1025.82 1025.37 1025.35 1025.16 1025.03 1024.73 1024.27 1023.95 1023.49 1022.74 1022.10 1021.69 1020.85 1020.28
1029.64 1029.64 1029.66 1029.60 1029.58 1029.70 1029.80 1029.81 1029.66 1029.50 1029.34 1029.03 1028.74 1028.25 1027.88 1027.45 1027.11 1026.75 1026.31 1026.02 1025.82 1025.75 1025.69 1025.37 1024.88 1024.42 1023.96 1023.27 1022.65 1021.81 1021.52 1021.42
1029.11 1028.96 1029.10 1029.26 1029.57 1029.80 1029.88 1029.84 1029.72 1029.53 1029.35 1029.07 1028.69 1028.37 1027.99 1027.61 1027.46 1027.16 1026.84 1026.64 1026.59 1026.33 1026.13 1025.84 1025.44 1024.96 1024.48 1023.73 1022.94 1022.55 1022.19 1022.06
1028.65 1028.66 1028.77 1029.00 1029.20 1029.54 1029.76 1029.72 1029.60 1029.52 1029.43 1029.10 1028.76 1028.49 1028.21 1027.92 1027.74 1027.68 1027.42 1027.10 1027.17 1027.01 1026.75 1026.35 1026.01 1025.59 1024.93 1024.25 1023.55 1023.27 1023.08 1023.13
1028.38 1028.46 1028.59 1028.76 1028.92 1029.20 1029.29 1029.43 1029.53 1029.43 1029.40 1029.20 1028.88 1028.65 1028.44 1028.08 1028.00 1027.90 1027.81 1027.81 1027.80 1027.67 1027.39 1027.03 1026.68 1026.30 1025.62 1024.98 1024.40 1023.98 1023.94 1023.86
Wind_Speed
3 4 6 6 7 8 8 7 7 8 6 7 6 7 7 4 9 8 11 10 14 11 9 9 9 8 3 5 8 9 10 9
3 3 4 6 5 7 7 7 8 5 5 7 7 8 8 7 4 12 10 10 12 12 9 9 10 8 7 5 6 5 8 12
4 3 4 4 5 7 7 7 7 5 4 4 3 5 5 4 7 7 9 11 10 10 12 11 11 8 8 5 4 2 1 9
6 5 5 5 6 6 7 7 7 6 7 4 4 4 5 6 8 7 8 11 10 10 11 11 11 9 6 8 6 6 4 5
5 7 6 7 6 6 7 7 6 6 7 5 5 4 5 5 6 8 7 8 10 8 10 10 10 8 8 8 10 7 6 8
9 8 7 5 5 7 7 7 6 6 7 6 4 5 4 5 5 8 8 6 8 9 10 10 10 7 8 7 10 7 6 6
7 5 5 5 5 6 5 6 5 6 6 7 7 7 7 7 8 7 7 7 7 11 10 9 9 9 7 7 8 8 4 6
6 7 6 5 7 6 6 5 6 6 6 7 7 7 7 7 7 6 9 8 8 9 10 10 9 10 9 9 7 6 6 5
7 6 4 6 7 7 6 6 6 6 6 7 7 7 4 5 5 6 6 6 8 10 9 10 10 10 9 9 6 6 7 5
7 6 6 6 6 7 5 6 6 5 6 6 7 6 7 5 7 5 5 7 7 9 9 9 10 10 11 10 7 8 8 6
6 5 6 5 5 6 5 4 4 5 6 5 6 6 6 6 5 8 8 8 8 8 8 7 9 9 10 9 8 9 8 6
6 6 6 6 6 5 5 3 5 6 6 6 6 6 7 6 5 7 7 10 9 8 8 8 9 10 11 10 10 8 9 8
5 5 6 6 5 5 4 3 4 5 5 5 6 6 6 6 6 8 9 9 8 7 8 8 10 11 11 10 10 9 9 9
5 5 5 5 5 3 2 3 5 5 5 6 6 6 6 6 6 7 9 9 8 9 10 10 10 11 11 10 9 10 9 7
6 6 6 5 3 2 2 3 4 5 6 6 6 6 6 5 5 7 9 7 9 9 9 9 10 10 11 10 9 9 9 9
6 6 5 4 2 2 1 3 5 4 5 6 6 6 5 5 6 6 8 9 8 8 8 9 9 9 10 11 9 9 10 9
7 7 5 5 4 4 2 2 4 4 5 6 5 5 5 6 5 6 6 5 7 8 8 9 9 8 20 18 12 8 10 11
6 6 6 5 6 6 4 4 2 3 5 6 5 5 5 6 4 5 6 5 6 6 8 8 9 10 21 18 14 8 9 10
6 5 4 5 5 5 3 3 3 3 4 5 5 5 5 4 5 4 5 4 5 5 6 7 7 9 21 18 12 8 8 10
Wind_Direction
274 300 333 339 347 346 342 336 338 330 333 337 335 343 339 0 355 354 352 353 345 341 340 333 327 328 203 207 189 187 181 162
239 264 322 329 355 341 335 338 333 342 348 354 348 347 340 336 2 350 356 354 352 341 344 337 351 320 335 243 197 190 190 147
229 265 291 295 295 311 334 335 336 337 341 330 320 318 324 318 338 342 356 3 349 342 346 350 341 328 335 224 163 120 167 136
266 251 253 284 294 303 310 317 332 336 340 329 326 315 329 347 346 341 345 5 339 349 353 346 334 337 335 350 210 175 151 133
247 246 248 240 263 290 290 319 337 335 336 350 354 342 343 333 326 332 342 346 328 356 353 349 330 326 344 359 316 183 141 159
233 232 247 281 287 286 293 313 334 337 336 340 345 338 320 314 323 326 333 332 337 354 0 340 329 331 327 350 329 331 170 160
250 271 272 276 286 287 312 318 318 329 332 328 344 341 333 341 336 333 333 331 339 2 349 341 334 323 339 357 322 325 247 166
260 254 262 300 305 312 312 333 313 309 328 329 333 334 332 330 329 329 336 335 340 343 343 345 342 328 348 347 333 326 337 194
263 287 293 275 291 302 314 310 314 320 335 329 326 334 329 320 321 325 325 330 323 332 339 340 353 352 347 351 358 339 331 347
276 287 287 269 295 299 296 317 313 320 336 341 326 331 334 326 325 324 329 325 322 334 338 2 0 351 356 355 350 337 340 349
269 281 293 285 303 299 310 307 291 323 337 342 328 324 330 327 331 336 334 330 332 337 346 7 3 357 353 6 352 349 339 354
288 286 286 288 297 293 303 343 352 342 344 336 333 328 329 335 337 330 333 338 338 346 4 11 12 2 358 11 355 329 352 349
281 288 285 293 301 307 338 16 352 341 332 335 328 325 330 345 336 333 340 335 344 29 16 12 12 11 2 5 344 341 350 352
310 309 297 305 314 309 63 13 347 333 338 341 331 328 335 343 334 355 343 345 38 29 18 14 10 6 356 1 340 346 340 341
282 288 289 295 289 157 67 347 340 341 343 336 333 331 335 342 343 3 353 23 43 28 20 12 7 9 359 349 349 344 355 14
267 265 269 281 216 142 78 333 336 334 341 339 334 330 350 340 29 12 31 32 33 29 20 9 8 15 3 355 348 12 28 21
265 252 249 228 199 187 217 305 312 337 345 338 337 355 352 10 8 20 34 51 44 28 16 8 6 12 2 3 5 33 40 27
264 252 243 208 189 182 216 243 286 334 341 339 348 2 0 353 26 26 4 40 45 29 16 12 7 7 8 5 12 32 45 40
263 252 220 203 184 187 206 242 274 308 342 337 346 1 4 19 6 18 27 35 40 25 15 11 12 10 7 7 10 36 43 46